Regional Weather Roundup
Issued by NWS Little Rock, AR

Home | Current Version | Previous Version | Graphics & Text | Print | Product List | Glossary On
Versions: 1 2 3 4 5 6 7 8 9 10 11 12 13 14 15 16 17 18 19 20 21 22 23 24 25 26 27 28 29 30 31 32 33 34 35 36 37 38 39 40 41 42 43 44 45 46 47 48 49 50
332
ASUS44 KLZK 240105
RWRLZK

WEATHER ROUNDUP FOR ARKANSAS
NATIONAL WEATHER SERVICE LITTLE ROCK AR
800 PM CDT SUN APR 23 2017

NOTE: "FAIR" INDICATES FEW OR NO CLOUDS BELOW 12,000 FEET WITH NO
SIGNIFICANT WEATHER AND/OR OBSTRUCTIONS TO VISIBILITY.

ARZ001-003-010-029-240200-
NORTHWEST ARKANSAS

CITY           SKY/WX    TMP DP  RH WIND       PRES   REMARKS
FAYETTEVILLE   CLEAR     61  39  44 N3        30.03F
FORT SMITH     CLEAR     67  38  34 NW8       30.00F
HARRISON       CLEAR     60  35  39 NW5       30.02F
BENTONVILLE    CLEAR     63  36  36 N5        30.05S
ROGERS         CLEAR     61  38  42 N5        30.05S
SILOAM SPGS    CLEAR     57  41  54 N8        30.03F
HIGHFILL       CLEAR     58  40  51 N6        30.04S
SPRINGDALE     CLEAR     61  39  44 N5        30.05F
$$

ARZ004-005-016-240200-
NORTH CENTRAL ARKANSAS

CITY           SKY/WX    TMP DP  RH WIND       PRES   REMARKS
BATESVILLE     CLEAR     64  30  27 NW3       29.97R
FLIPPIN        CLEAR     64  34  32 NW3       29.98S
MTN HOME       CLEAR     59  36  42 CALM      29.99S
$$

ARZ040-041-240200-
WEST CENTRAL ARKANSAS

CITY           SKY/WX    TMP DP  RH WIND       PRES   REMARKS
MENA           CLEAR     64  41  42 CALM      30.01S
MOUNT IDA      CLEAR     62  42  47 NW3       29.97
$$

ARZ009-017-025-026-028-240200-
NORTHEAST ARKANSAS

CITY           SKY/WX    TMP DP  RH WIND       PRES   REMARKS
CORNING        FAIR      64  45  48 NE6       29.97R
JONESBORO      CLEAR     60  42  51 N3        29.95S
NEWPORT        CLEAR     60  51  72 NE8       29.96R
WALNUT RIDGE   CLEAR     61  45  55 E8        29.96S
BLYTHEVILLE    PTCLDY    57  54  89 S3        29.93S
$$

ARZ022-023-033-042-044-240200-
CENTRAL ARKANSAS

CITY           SKY/WX    TMP DP  RH WIND       PRES   REMARKS
LITTLE ROCK    CLEAR     63  39  41 N8        29.96R
N LITTLE ROCK    N/A     64  40  41 N5        29.97S
JACKSONVILLE   CLEAR     67  41  39 CALM      29.96R
CONWAY           N/A     64  41  42 N6        29.96S
SEARCY         CLEAR     64  41  42 E5        29.98R
HOT SPRINGS    CLEAR     67  39  35 N3        29.98R
RUSSELLVILLE   CLEAR     63  42  46 N3        29.98S
$$

ARZ036-240200-
EAST ARKANSAS

CITY           SKY/WX    TMP DP  RH WIND       PRES   REMARKS
WEST MEMPHIS   CLEAR     55  54  96 CALM      29.92S
$$

ARZ050-053-066-070-073-240200-
SOUTHWEST ARKANSAS

CITY           SKY/WX    TMP DP  RH WIND       PRES   REMARKS
ARKADELPHIA    FAIR      61  55  81 CALM      29.98S
CAMDEN         CLEAR     59  46  63 CALM      29.97S
TEXARKANA      CLEAR     65  45  48 N5        29.98F
EL DORADO      CLEAR     60  50  69 CALM      29.98R
DE QUEEN       CLEAR     66  41  40 N3        29.97F
$$

ARZ056-057-069-240200-
SOUTHEAST ARKANSAS

CITY           SKY/WX    TMP DP  RH WIND       PRES   REMARKS
PINE BLUFF     CLEAR     65  43  44 N3        29.95S
STUTTGART      CLEAR     63  43  48 N6        29.96R
MONTICELLO     CLEAR     58  50  75 CALM      29.96R

$$






USA.gov is the U.S. government's official web portal to all federal, state and local government web resources and services.